Regional Weather Roundup
Issued by NWS Burlington, VT

Home | Current Version | Previous Version | Text Only | Print | Product List | Glossary On
Versions: 1 2 3 4 5 6 7 8 9 10 11 12 13 14 15 16 17 18 19 20 21 22 23 24 25 26 27 28 29 30 31 32 33 34 35 36 37 38 39 40 41 42 43 44 45 46 47 48 49 50
000
ASUS41 KBTV 222230
RWRBTV
VERMONT REGIONAL WEATHER ROUNDUP
NATIONAL WEATHER SERVICE BURLINGTON VT
600 PM EDT SAT JUL 22 2017

NOTE: "FAIR" INDICATES FEW OR NO CLOUDS BELOW 12,000 FEET WITH NO
SIGNIFICANT WEATHER AND/OR OBSTRUCTIONS TO VISIBILITY.

* THESE REPORTS ARE NOT UNDER NWS QUALITY CONTROL AND/OR DO NOT
  REPORT WEATHER SUCH AS PRECIPITATION AND FOG.

VTZ001>019-222300-
_____VERMONT_____


CITY           SKY/WX    TMP DP  RH WIND       PRES   REMARKS
BURLINGTON     PTSUNNY   76  54  46 N7        29.80F
MONTPELIER     CLOUDY    73  63  70 NW7       29.85F
MORRISVILLE    PTSUNNY   73  53  49 NW10      29.83F
ST. JOHNSBURY*   N/A     76  57  51 MISG      29.79R
LYNDONVILLE*   FAIR      71  55  56 NW5       29.85S
MIDDLEBURY*    CLOUDY    73  64  74 CALM      29.81S
RUTLAND*       CLOUDY    75  65  70 W5        29.82F
SPRINGFIELD    CLOUDY    78  62  57 CALM      29.80F
HIGHGATE*      FAIR      73  58  59 CALM      29.82S
NEWPORT*       PTSUNNY   70  54  57 NW5       29.84S
BENNINGTON     MOSUNNY   75  63  66 CALM      29.83F
SUTTON*          N/A     72 N/A N/A MISG        N/A
ISLAND POND*     N/A     72 N/A N/A NW2         N/A
GALLUP MILLS*    N/A     72 N/A N/A MISG        N/A
UNION VILLAGE*   N/A     75 N/A N/A MISG        N/A
MT. MANSFIELD*   N/A     63 N/A N/A NW13        N/A

_____LAKE CHAMPLAIN_____


CITY           SKY/WX    TMP DP  RH WIND       PRES   REMARKS
BURTON ISLAND*   N/A     77  55  47 NE1         N/A
COLCHESTER RF*   N/A     73  57  56 NE14        N/A
DIAMOND ISL*     N/A     73  59  60 N21         N/A

$$

NYZ007-026>031-035-052-083-087-222300-
_____NORTHERN NEW YORK_____


CITY           SKY/WX    TMP DP  RH WIND       PRES   REMARKS
PLATTSBURGH    CLOUDY    74  57  55 NE8       29.80F
SARANAC LAKE   CLOUDY    73  61  65 CALM      29.84F
MASSENA        CLOUDY    78  59  51 CALM      29.82F
OGDENSBURG*    FAIR      79  62  55 NE5       29.81S
POTSDAM*       SUNNY     75  64  69 E6        29.81F
STARK FALLS*     N/A     73 N/A N/A N1          N/A
WATERTOWN      CLOUDY    74  66  76 CALM      29.80F
FT DRUM        CLOUDY    74  63  69 CALM      29.81F
ALBANY         LGT RAIN  74  63  68 W3        29.81F
GLENS FALLS    MOSUNNY   75  67  76 S7        29.78F

$$
NHZ002-005-011-222300-
_____NEW HAMPSHIRE_____


CITY           SKY/WX    TMP DP  RH WIND       PRES   REMARKS
LEBANON        PTSUNNY   81  63  54 W5        29.78F
KEENE          CLOUDY    77  66  68 SW8       29.80F
MT WASHINGTON  FOG       54  50  87 NW26        N/A  VSB 1
PLYMOUTH       FAIR      78  65  63 CALM      29.77F
WHITEFIELD     CLOUDY    76  57  51 NW5       29.81S

$$

_____REGIONAL QUEBEC LOCATIONS_____


CITY           SKY/WX    TMP DP  RH WIND       PRES   REMARKS
MONTREAL       MOSUNNY   77  57  50 W10       29.80F
QUEBEC CITY    MOSUNNY   70  39  32 W12       29.82S
SHERBROOKE     SUNNY     70  50  49 W10       29.83F

_____REGIONAL ONTARIO LOCATIONS_____


CITY           SKY/WX    TMP DP  RH WIND       PRES   REMARKS
OTTAWA         PTSUNNY   75  55  50 NE6       29.82F

______KEY______
VSB  - VISIBILITY IN MILES
WCI  - WIND CHILL INDEX
HX   - HEAT INDEX
$$
NNNN




USA.gov is the U.S. government's official web portal to all federal, state and local government web resources and services.